Theta_e
299 299 299 299 300 300 300 300 301 301 301 288 286 291 290 292 289 299 303 310 310 302 294 296 294 293 295 299 297 297 294 291 291 292 292 292 294 291 292 292 291 291 293 291 289 289 286 288 288 287 286 287 290 288 291 290 293 294 285 288 286 290 282 281 284 287 288 291 288 285 285 287 286 287 287 286 286 288 286 285 285 282 283 281 281 279 283
299 299 299 299 299 299 299 299 299 300 300 290 288 287 287 291 290 293 299 306 306 298 288 289 291 293 297 297 295 297 293 292 291 291 292 290 289 291 290 290 293 290 290 289 289 289 285 290 290 288 288 286 289 287 288 289 285 289 286 288 290 282 283 284 280 281 282 283 284 284 284 285 283 284 286 287 287 286 285 284 284 280 282 283 281 275 283
299 299 299 299 299 298 298 298 298 299 300 297 289 284 287 285 287 289 292 300 301 292 295 292 291 292 292 293 292 293 293 294 295 294 291 293 291 289 287 292 287 284 287 286 285 286 288 286 288 287 287 287 288 287 287 288 287 288 288 290 289 285 283 280 278 276 274 274 275 276 276 280 282 282 284 286 286 286 285 281 281 278 283 284 280 280 287
300 299 299 299 299 299 298 298 298 298 299 300 286 286 285 280 275 280 286 293 294 294 296 293 292 289 290 290 292 293 291 294 293 295 294 296 292 293 292 288 289 288 288 285 286 287 286 286 284 285 282 283 284 284 286 287 285 289 290 288 289 286 284 284 284 282 280 282 283 284 284 283 282 284 285 285 285 285 285 285 281 279 283 281 283 284 284
299 299 299 299 298 298 299 298 298 299 299 299 286 282 283 281 278 279 272 285 289 289 292 290 292 288 292 286 290 288 288 289 290 295 289 291 292 292 293 288 288 286 287 285 286 286 286 286 287 287 287 286 285 286 285 286 287 289 288 287 281 282 282 285 285 284 284 286 283 284 283 281 283 283 283 285 284 285 284 281 279 286 281 276 285 285 282
300 300 300 300 299 299 299 298 299 300 300 301 287 281 283 276 278 282 284 282 279 284 286 288 287 289 290 286 291 288 287 287 285 287 289 288 286 288 288 291 291 290 288 287 284 286 286 286 285 285 283 283 282 281 284 280 285 285 283 284 283 282 281 284 285 283 283 282 282 282 282 282 282 283 282 282 284 283 281 281 283 283 279 276 282 283 282
300 300 301 300 300 300 299 299 299 299 299 297 280 278 278 280 281 280 284 280 282 284 286 285 286 286 287 286 288 286 287 286 290 288 287 289 286 291 283 287 286 287 286 286 284 285 281 281 281 281 279 277 278 276 279 282 281 281 279 281 283 282 279 283 281 279 280 281 281 282 281 280 280 280 281 281 281 280 281 281 282 282 280 282 282 283 283
299 299 300 300 300 299 299 299 300 301 299 290 282 281 279 279 281 278 282 282 281 282 283 283 283 282 285 284 286 287 286 286 288 287 287 284 285 289 285 282 280 280 279 280 282 282 282 282 282 281 277 277 277 275 279 278 279 280 277 281 280 284 278 284 279 277 277 280 281 280 280 279 277 279 280 280 279 279 280 280 280 281 280 282 282 281 281
300 299 300 300 300 300 300 299 299 300 300 288 285 281 282 284 286 285 279 276 278 279 279 280 281 280 282 281 283 285 284 284 282 281 286 286 285 283 281 282 281 282 283 282 282 284 282 283 282 282 282 279 284 279 280 283 277 279 276 281 279 282 276 282 278 274 274 278 278 278 278 277 276 276 277 277 277 275 278 277 280 279 277 279 279 277 278
300 300 300 299 299 299 299 299 300 300 300 290 287 282 284 282 280 283 281 272 280 278 280 276 277 274 277 281 282 282 281 279 282 281 284 281 283 281 281 282 280 280 281 281 283 282 282 283 284 284 284 284 283 283 282 282 280 279 278 283 279 281 278 275 275 272 272 277 278 275 275 274 271 272 276 277 277 278 279 280 280 280 281 277 275 276 275
301 301 301 301 300 300 299 299 299 300 295 287 283 281 282 282 281 282 282 273 275 277 277 276 275 276 276 277 276 278 278 279 280 280 281 281 282 283 282 281 279 278 279 283 285 284 283 285 285 285 285 284 283 283 283 283 283 281 280 277 275 278 277 275 277 271 271 274 269 270 267 264 266 276 279 280 277 278 276 277 279 278 280 277 278 276 276
302 301 301 301 301 301 300 299 299 301 298 291 288 283 283 282 281 280 278 275 275 278 275 272 276 277 276 277 276 275 275 277 277 281 278 281 281 282 282 281 281 276 286 284 286 285 285 286 285 283 283 281 281 281 281 279 280 282 281 278 274 274 274 271 270 267 267 263 263 266 261 263 271 275 276 276 277 278 278 277 276 276 276 277 276 277 276
302 301 301 301 301 301 301 301 300 300 300 292 291 286 285 285 284 281 279 275 270 276 275 276 276 276 276 276 276 276 277 277 277 279 279 278 277 279 281 281 281 283 285 284 285 283 279 277 278 279 278 278 277 278 278 278 279 280 280 280 276 271 271 265 265 263 262 263 265 259 257 272 273 276 277 277 276 275 272 270 275 274 275 276 273 277 279
301 301 301 301 301 301 301 301 301 301 301 297 292 289 287 287 284 281 279 276 275 278 277 276 276 275 276 276 276 276 277 276 276 276 274 277 276 276 277 280 280 283 280 279 278 277 272 271 262 267 269 261 260 265 269 273 274 276 277 278 279 276 269 267 265 272 264 265 263 266 270 272 273 273 274 274 272 273 270 264 271 274 272 274 273 274 277
301 301 301 300 300 301 301 300 300 300 300 299 293 292 290 290 288 283 283 278 273 277 278 272 275 276 277 276 276 274 275 274 275 274 275 276 275 277 279 280 280 279 280 277 273 270 267 256 256 262 257 259 258 259 264 263 268 272 273 275 278 278 274 274 269 266 273 264 266 266 265 262 265 273 272 276 276 277 276 271 267 275 270 271 272 271 274
301 301 301 301 300 301 300 301 301 300 300 299 294 291 290 292 291 290 286 281 279 273 278 280 278 275 275 275 276 275 273 273 274 270 270 273 273 276 278 277 276 278 278 275 273 264 260 262 260 255 258 255 258 259 258 263 265 266 271 273 276 277 278 276 273 270 273 269 267 266 265 267 274 272 275 275 275 276 275 269 265 274 270 270 272 272 274
301 301 301 300 300 300 300 300 301 301 301 300 293 292 289 292 291 289 286 283 281 276 282 280 280 279 274 275 278 275 277 274 276 269 264 268 274 273 272 275 276 279 277 274 269 268 265 258 258 255 256 258 260 261 259 256 255 261 267 268 270 273 275 275 271 270 270 269 267 265 268 263 268 267 270 273 272 275 270 263 263 268 268 269 272 273 273
300 300 300 300 300 300 300 300 300 301 300 301 296 292 291 292 292 289 286 284 281 280 283 281 279 276 276 278 276 278 276 273 272 272 271 268 268 271 271 271 272 276 279 270 270 267 268 263 263 264 261 265 262 263 258 261 255 258 260 265 263 265 262 266 269 271 271 271 268 271 270 273 271 271 271 273 275 273 262 261 266 271 270 271 271 273 274
300 300 300 300 300 300 300 300 300 300 300 300 296 292 292 293 292 291 288 285 283 278 285 286 285 280 280 281 278 278 278 278 276 272 262 266 267 269 271 269 275 268 272 269 268 267 269 267 264 258 259 262 264 257 264 260 262 263 265 265 262 261 260 260 262 264 267 267 265 266 267 268 272 271 274 274 271 260 263 270 274 272 273 271 273 273 275
300 300 300 300 300 299 300 300 300 300 300 300 297 290 292 293 292 291 287 283 285 282 285 283 284 281 283 281 278 276 276 277 277 273 266 268 268 274 274 270 273 262 263 269 268 269 266 267 269 267 263 265 265 269 261 265 268 263 263 264 264 263 258 257 260 260 258 260 261 262 260 269 271 273 272 273 265 266 270 272 274 276 275 275 275 274 274
299 299 299 299 299 299 299 300 299 299 299 300 298 291 290 293 292 291 292 289 284 280 282 287 284 285 285 283 284 283 281 278 279 277 277 277 278 273 266 264 269 263 265 269 266 267 264 259 259 264 267 268 266 264 263 259 259 268 271 268 266 268 263 258 261 266 263 261 259 260 267 272 274 270 267 268 272 274 275 276 275 277 276 275 275 274 275
299 299 299 299 299 299 299 299 299 299 299 299 299 292 289 292 291 292 289 289 285 283 283 285 286 286 287 288 287 287 285 284 284 285 280 278 278 278 272 267 265 260 261 267 263 261 261 259 259 257 260 260 259 262 260 258 262 263 266 267 262 271 268 269 266 269 266 262 266 271 271 273 274 273 274 275 277 277 276 275 275 274 275 275 273 275 275
299 300 300 299 299 300 299 299 299 298 299 299 297 291 289 291 290 293 288 284 286 286 287 285 286 286 287 288 288 288 288 289 287 284 285 280 277 279 277 274 272 274 273 276 272 270 268 263 266 263 258 260 267 262 259 266 259 260 264 270 270 273 272 272 271 269 273 274 275 277 274 274 276 277 277 277 277 278 276 275 274 275 275 274 274 273 273
299 299 299 298 299 298 298 298 298 299 299 299 299 289 289 291 290 289 287 286 283 280 283 285 282 279 283 284 288 288 288 286 287 287 288 286 278 276 277 278 278 275 271 275 278 277 272 269 271 269 268 269 266 264 265 263 264 265 265 267 270 273 274 270 268 272 269 264 274 274 274 276 276 276 277 277 276 276 277 275 275 274 273 272 271 271 271
298 298 298 298 298 299 298 298 298 298 299 299 297 294 290 286 290 289 285 279 280 279 274 279 281 285 288 290 290 288 288 288 290 288 286 286 284 279 277 280 282 280 278 278 279 274 271 271 271 269 268 273 271 266 270 266 266 271 265 268 267 268 274 270 272 271 269 269 274 275 275 275 276 276 276 276 277 277 274 272 271 271 270 270 270 269 268
299 298 298 299 299 298 298 298 298 298 298 298 296 288 287 288 291 290 288 288 285 281 276 275 280 284 284 285 284 287 289 288 287 287 286 286 285 284 283 281 279 282 280 280 280 278 273 270 273 272 271 271 278 271 270 273 270 272 270 269 273 272 272 260 266 269 272 274 275 275 275 275 276 277 277 275 272 271 270 269 269 269 267 268 268 269 268
298 299 298 299 298 298 299 298 298 299 298 297 296 287 288 288 291 289 286 285 281 276 279 275 280 278 279 281 284 283 285 287 286 286 285 286 285 285 284 283 281 281 281 280 281 279 274 273 273 271 274 273 278 270 271 267 272 268 269 273 274 272 270 273 269 267 267 268 272 274 267 268 273 274 271 268 268 269 268 268 267 267 266 267 266 266 267
299 298 299 299 298 298 298 298 298 299 298 298 295 288 288 289 290 291 291 289 284 278 278 276 275 276 280 274 280 283 285 286 286 285 284 284 284 284 283 283 283 281 280 279 275 275 273 272 271 276 275 272 272 271 276 276 275 270 271 273 275 272 273 272 269 268 268 273 275 274 274 274 275 272 267 267 267 267 266 266 266 266 267 266 265 264 264
297 297 298 298 298 298 298 298 297 297 298 296 286 285 285 289 291 292 292 290 288 284 282 282 280 275 275 277 281 281 282 285 284 284 284 283 283 283 283 283 282 282 281 280 279 278 276 275 278 275 272 276 273 270 273 268 269 268 272 276 276 276 277 275 275 275 275 276 276 276 275 274 273 268 267 265 266 265 265 266 266 266 265 264 264 263 263
298 298 298 297 297 298 298 297 297 298 298 289 286 284 282 284 289 290 292 291 288 286 279 276 273 277 278 276 275 278 281 283 283 283 282 282 282 282 282 282 282 283 282 280 279 275 278 277 278 280 279 279 274 271 270 271 269 271 276 276 277 277 277 277 278 275 274 278 272 269 270 269 270 268 265 265 265 265 263 264 264 263 263 264 262 262 263
298 297 298 298 298 297 297 298 298 298 296 286 285 279 278 276 283 291 293 291 290 285 281 280 276 281 276 278 277 279 280 282 281 281 282 282 282 283 283 283 282 283 279 280 279 279 280 275 277 278 281 279 278 272 271 270 269 271 275 276 276 276 276 276 277 275 273 272 266 266 266 267 266 264 264 263 263 263 263 263 263 263 262 261 261 261 261
297 298 298 298 298 297 298 298 298 296 291 285 284 282 282 281 284 289 293 293 290 284 279 275 275 275 274 277 275 277 281 281 282 281 279 282 280 283 282 282 280 284 282 279 280 279 277 279 278 278 277 280 280 270 272 271 269 271 276 276 277 276 276 276 272 265 263 263 265 268 267 263 264 265 265 263 263 263 262 262 262 261 260 259 260 260 259
297 297 297 298 297 297 298 297 297 296 289 289 292 293 293 293 293 293 293 290 286 282 282 277 273 275 273 271 271 272 276 276 274 279 277 283 279 281 277 282 281 281 285 280 277 275 279 279 279 276 279 281 275 273 271 270 272 276 277 277 277 274 268 264 262 262 261 261 264 267 269 264 262 262 262 263 262 261 261 260 259 258 257 256 255 258 258
296 296 297 297 297 296 297 297 297 295 295 287 283 285 290 294 294 294 289 288 284 283 280 276 272 272 271 271 267 270 280 277 276 279 273 279 278 279 277 279 280 277 280 277 279 278 276 277 275 276 278 276 278 271 269 273 276 277 277 277 266 264 264 262 262 261 260 260 260 260 260 261 261 261 261 261 260 260 260 258 256 255 254 255 255 256 257
296 296 295 297 296 297 297 296 291 289 285 285 285 286 291 295 294 294 290 285 278 277 277 276 276 270 270 268 269 270 275 274 272 276 274 274 280 277 277 274 278 274 275 282 277 277 275 275 278 272 271 276 273 269 272 274 276 277 276 270 262 263 262 262 261 259 259 259 258 259 259 259 259 259 259 258 258 258 257 255 256 255 254 254 255 255 255
296 296 295 296 295 295 291 291 288 285 283 284 283 290 294 295 294 291 288 286 282 276 275 274 276 272 272 269 268 271 277 273 273 274 273 272 272 276 276 276 271 276 279 277 273 277 274 279 274 270 276 270 270 272 274 276 275 275 274 271 263 263 262 263 261 258 258 257 256 258 259 258 258 257 257 257 257 255 255 254 254 254 253 253 253 254 254
295 295 296 295 291 287 284 285 288 286 285 288 289 294 294 292 286 286 285 283 283 283 277 273 270 271 273 270 268 270 276 267 274 269 268 267 269 270 273 272 270 276 273 272 274 273 276 282 275 271 272 269 272 276 272 270 270 270 265 260 260 259 258 258 257 256 254 255 256 258 258 257 256 256 256 255 254 254 253 253 252 252 251 251 251 252 252
296 294 289 285 282 279 279 283 279 286 294 293 292 286 282 284 278 280 280 277 281 282 277 276 273 271 270 270 268 277 276 272 276 272 267 269 270 267 273 273 272 276 267 270 273 278 273 272 270 270 271 275 266 261 262 262 260 259 260 259 259 258 258 257 256 255 256 260 260 258 257 255 253 253 252 252 252 251 252 253 252 253 252 252 252 252 251
293 288 285 284 280 279 279 278 287 294 290 288 285 280 277 278 276 273 274 277 278 273 278 275 273 275 273 271 271 279 275 271 269 269 268 275 271 267 272 267 274 274 268 267 270 278 268 269 270 271 269 270 269 268 259 259 258 258 258 258 258 257 257 256 256 256 257 259 258 255 253 254 254 252 251 252 252 252 252 252 252 252 251 251 251 251 250
285 281 281 278 279 279 284 288 295 289 284 279 278 277 273 277 273 269 276 271 272 273 276 271 277 276 276 274 272 272 279 272 269 268 270 268 276 268 271 268 272 270 265 267 267 272 265 260 263 265 267 267 270 260 257 258 256 256 256 256 256 256 257 256 255 256 255 255 255 254 253 253 252 252 251 251 251 250 250 250 250 250 250 250 251 251 250
283 280 280 279 277 280 284 285 281 279 278 274 274 273 272 269 271 270 272 269 268 266 268 269 272 272 275 277 276 272 279 276 268 271 270 267 274 271 265 265 270 264 263 263 268 263 259 256 258 262 267 270 263 254 255 254 254 254 254 254 254 255 254 254 255 255 253 252 252 252 251 250 250 250 250 249 249 249 249 249 249 249 249 249 249 250 251
285 283 281 281 281 283 283 281 278 276 275 276 270 268 270 269 269 267 270 267 268 266 264 271 270 272 271 276 274 276 272 271 269 273 271 267 275 269 266 264 267 263 260 265 260 258 261 261 259 257 263 258 250 252 253 253 253 252 252 253 254 253 253 254 253 253 252 251 250 250 250 248 248 249 249 249 249 249 249 249 249 249 249 249 250 250 251
290 286 282 278 279 278 279 274 276 274 269 269 267 265 268 264 267 267 266 269 263 262 263 266 267 277 275 274 269 272 272 276 271 270 268 266 275 270 265 265 262 261 265 260 258 259 257 258 254 263 261 250 251 251 252 252 252 252 252 253 253 254 252 250 251 250 249 249 247 247 249 248 248 248 248 247 247 246 247 248 248 248 249 250 249 250 250
284 283 279 276 275 276 277 267 276 269 268 268 267 264 265 263 265 263 261 264 260 262 267 270 270 272 268 272 273 271 270 275 276 266 267 271 268 266 267 262 263 266 263 261 260 258 259 253 261 264 253 250 252 250 251 251 250 251 250 252 249 249 250 250 250 249 248 248 248 248 247 248 247 248 247 246 246 246 247 247 249 249 250 250 250 251 252
278 275 274 273 271 275 272 266 273 268 266 267 270 264 265 265 266 265 267 265 267 267 269 268 271 270 267 266 268 271 275 267 273 269 267 270 266 267 263 262 262 261 262 260 257 256 254 258 260 249 249 251 252 251 250 250 250 250 249 248 248 249 249 249 249 249 248 247 247 247 247 247 248 248 247 248 248 248 247 247 249 249 249 249 249 250 252
276 274 272 268 266 271 269 265 267 264 267 269 267 265 267 268 267 267 265 263 264 262 269 270 269 268 264 264 269 269 269 269 267 268 269 267 264 263 265 265 265 262 260 257 255 257 262 266 268 262 255 253 253 251 250 249 248 247 248 246 247 247 246 246 246 246 247 248 248 247 248 247 247 248 248 248 248 248 248 248 249 249 249 249 250 252 253
276 275 271 270 267 268 268 264 264 265 265 265 266 269 272 270 266 266 261 260 266 265 265 265 269 268 268 264 264 266 267 266 266 268 268 264 263 265 270 264 262 261 259 256 256 256 259 265 257 251 253 252 250 248 248 247 246 246 246 246 246 246 245 246 246 246 247 247 247 247 247 247 248 249 248 247 248 248 248 249 249 250 251 251 253 253 253
272 274 271 265 265 267 265 266 262 258 255 256 256 255 256 260 265 263 259 256 261 267 269 269 267 265 266 266 265 266 265 266 265 267 268 266 267 262 262 261 260 259 256 256 261 264 261 252 251 253 251 251 250 248 246 247 245 246 245 246 245 245 245 246 246 246 246 246 246 247 248 248 247 247 247 247 247 248 248 249 249 251 252 254 254 253 253
273 271 270 268 265 266 264 262 265 266 258 256 255 258 262 267 268 262 258 257 264 268 266 266 263 265 263 268 267 269 266 269 264 264 266 264 262 261 259 255 254 254 257 259 259 254 252 252 250 249 249 248 247 248 247 246 246 246 246 246 245 247 247 247 247 248 246 246 245 246 246 247 247 247 247 246 246 248 249 250 252 253 254 253 253 253 253
270 265 260 257 260 262 258 258 263 262 258 256 259 259 258 263 261 257 258 257 258 263 268 273 273 270 266 265 262 264 264 264 265 266 263 261 262 258 257 254 252 256 256 251 248 247 247 249 249 249 247 247 247 247 247 246 247 247 247 247 247 247 247 245 247 247 246 245 246 246 246 246 246 246 246 247 248 250 252 253 254 254 254 254 254 253 253
267 265 260 259 261 263 264 263 266 263 260 262 263 261 261 264 262 261 260 260 263 265 263 263 266 264 264 264 263 261 263 263 262 264 262 262 257 256 257 260 261 254 251 249 249 250 249 247 248 247 244 245 246 248 248 246 245 245 243 243 243 243 244 244 246 247 246 246 245 248 246 245 247 247 248 249 251 252 253 254 254 254 254 254 254 254 253
266 264 261 258 257 258 261 262 262 260 262 262 263 259 263 262 260 257 261 263 265 267 264 257 260 261 261 262 263 261 261 262 261 258 256 256 252 256 253 256 253 250 253 251 249 245 244 242 243 247 246 246 245 245 243 242 241 241 241 241 241 241 242 243 243 244 244 244 245 243 245 246 246 247 249 252 253 253 252 252 254 254 254 254 254 254 253
Wind_Speed
0 0 1 2 3 4 5 7 9 12 10 4 3 0 1 2 3 2 4 3 10 6 8 4 4 6 2 3 3 2 3 2 1 1 0 1 2 1 2 4 5 4 7 5 6 5 6 5 6 2 2 4 2 8 9 4 0 1 3 3 3 6 2 0 7 5 7 12 1 3 3 2 2 3 4 4 10 11 12 11 5 7 3 6 6 8 2
1 1 2 2 3 3 5 5 7 9 9 1 1 3 1 2 1 4 4 5 2 10 10 9 10 6 6 6 6 3 2 2 4 2 2 3 1 2 1 3 4 4 1 1 5 1 6 5 12 7 1 2 2 8 9 6 2 2 3 2 4 2 3 5 2 2 3 5 2 2 2 2 1 2 3 3 3 4 5 2 0 5 7 11 10 13 2
3 2 1 2 2 1 3 3 5 6 8 3 2 2 0 1 1 2 5 4 1 4 1 4 6 8 8 4 9 9 4 6 11 7 5 2 4 0 3 7 2 2 3 3 2 2 7 5 4 2 2 2 2 5 8 7 4 2 1 1 2 1 3 2 6 7 9 9 10 6 1 1 1 2 3 4 3 10 8 9 4 11 5 11 9 11 6
4 3 2 3 2 2 2 1 2 4 5 7 4 1 2 1 1 1 3 3 2 2 2 1 3 2 7 9 11 12 11 3 2 7 6 8 4 5 2 2 2 1 1 2 3 5 4 7 2 1 2 1 1 2 4 6 0 1 2 5 1 1 2 2 5 10 11 10 5 2 1 1 3 4 7 7 3 4 5 7 9 11 9 12 10 12 14
5 4 4 3 2 1 1 1 3 4 3 6 3 2 2 1 2 1 1 2 1 3 3 2 3 3 3 3 1 6 4 2 1 3 1 3 1 1 4 2 2 2 3 3 6 6 7 7 8 9 9 1 1 2 4 3 6 4 1 4 2 0 3 6 8 8 8 6 4 4 2 4 3 2 5 6 9 7 9 10 11 8 13 14 2 5 7
5 5 3 4 4 3 2 2 4 5 5 4 3 1 1 2 2 3 1 2 3 4 7 0 3 5 0 3 2 3 2 0 1 3 1 0 1 0 3 1 4 6 6 2 4 2 2 1 2 1 1 1 2 1 1 3 4 4 1 3 2 1 5 2 8 7 4 6 6 5 4 2 3 5 6 10 9 11 13 14 12 10 11 13 13 18 20
7 7 7 5 5 4 3 2 2 4 3 6 3 2 3 3 1 0 2 2 3 1 2 3 1 4 1 1 2 6 7 8 4 1 4 3 2 0 4 2 4 3 4 0 2 3 7 6 2 1 2 1 1 2 1 1 4 5 3 2 0 0 4 2 3 3 5 8 9 7 11 10 11 9 10 10 13 17 17 17 15 16 18 18 18 18 21
8 8 7 6 6 5 3 3 6 9 7 5 3 0 1 1 0 1 2 2 1 1 1 1 3 2 1 4 7 6 6 12 6 2 3 6 6 1 9 3 3 3 2 1 6 3 2 4 12 1 3 4 1 1 3 3 3 4 2 2 4 1 6 7 1 6 7 8 10 10 9 8 13 10 12 14 18 18 17 17 18 19 19 17 19 19 18
10 9 9 8 8 7 6 5 5 8 7 3 1 1 1 1 1 1 2 2 2 2 1 1 2 1 2 5 3 3 4 6 3 2 1 2 4 2 3 3 3 1 1 2 1 0 2 2 1 1 2 3 2 3 3 6 5 5 2 1 2 3 4 4 4 8 10 9 12 13 10 8 9 11 15 20 20 17 14 16 11 10 12 11 9 9 7
10 10 10 9 9 9 8 8 6 8 6 3 0 1 1 2 1 2 1 1 1 3 1 1 2 4 2 2 1 1 1 2 1 1 3 7 8 6 4 2 3 2 2 4 3 5 2 3 6 5 6 6 7 5 7 6 4 2 1 2 3 1 1 4 7 11 11 12 8 4 4 9 14 14 21 20 18 17 16 13 10 10 4 8 11 9 3
8 6 3 5 9 10 9 8 9 10 8 4 2 1 2 2 2 2 2 3 4 4 3 3 4 3 3 2 2 3 2 3 4 3 2 5 2 5 2 1 2 2 4 1 3 3 4 4 4 4 5 8 9 8 9 10 9 8 4 2 2 4 7 8 4 9 10 10 2 1 4 12 16 4 2 3 10 6 7 7 4 6 4 2 1 4 4
14 13 10 7 6 7 9 11 11 12 11 6 4 3 4 3 4 3 2 3 3 3 4 4 5 2 2 1 2 0 1 0 1 2 2 1 1 3 1 2 2 2 1 2 3 2 3 3 5 4 6 8 9 9 9 12 12 9 8 9 7 8 8 8 3 4 7 1 4 7 11 16 5 2 2 1 1 3 5 3 3 3 3 6 5 5 4
14 13 13 12 12 10 9 9 11 13 14 7 6 5 3 2 4 3 3 3 3 3 3 4 2 2 2 0 1 4 5 3 1 2 2 3 4 1 2 2 4 2 3 1 2 3 1 5 4 6 7 3 5 7 10 13 15 13 9 9 8 7 8 1 2 3 3 2 3 5 7 2 6 6 2 1 5 1 5 4 5 4 4 6 4 6 6
14 15 15 15 16 15 14 13 9 9 12 11 8 6 5 4 4 3 3 2 4 4 6 5 3 3 3 5 5 4 2 5 3 2 3 3 5 3 3 2 3 1 1 2 1 1 1 2 3 3 4 3 3 3 6 6 9 12 10 9 9 9 2 3 5 4 7 4 7 12 8 17 13 10 1 3 2 2 2 4 5 7 6 7 4 5 5
15 15 15 15 16 16 16 16 15 13 9 11 5 3 6 6 6 4 1 3 2 1 6 4 4 9 9 5 3 3 3 3 1 4 1 1 1 5 7 2 0 1 1 2 1 2 3 2 2 2 5 1 2 4 5 1 3 2 2 4 8 8 10 6 6 5 6 3 6 6 4 8 5 2 3 4 3 1 1 6 6 3 6 3 4 4 8
16 16 16 16 15 15 16 16 15 16 16 13 6 5 6 7 5 5 4 4 3 5 7 11 5 4 5 4 4 7 4 3 3 1 2 1 4 3 3 1 1 3 2 3 1 4 1 2 4 3 4 3 3 2 4 3 4 2 5 2 5 4 7 6 8 4 4 6 8 9 9 6 5 7 4 2 1 1 3 4 7 2 6 5 7 7 7
17 16 17 16 16 16 16 16 16 17 16 15 7 7 5 7 6 6 5 2 5 9 3 4 5 4 2 0 2 1 3 2 2 1 2 2 2 1 6 3 1 1 3 4 0 2 2 3 0 2 4 2 1 4 1 1 0 4 2 5 8 4 5 6 8 9 8 7 7 10 3 3 1 2 2 4 2 2 3 9 6 3 8 5 7 8 7
18 18 18 18 18 17 17 17 17 17 17 18 8 6 5 8 8 6 3 5 6 8 7 7 7 6 7 6 5 2 4 1 2 0 1 2 1 1 2 1 0 3 3 3 2 4 3 3 4 4 4 4 3 1 3 3 1 4 0 1 0 1 3 1 9 10 10 16 10 7 6 2 3 5 5 2 2 1 3 10 5 5 6 5 4 6 8
20 20 19 19 19 18 18 18 17 17 17 17 6 3 5 8 8 8 4 4 6 9 7 13 11 8 3 3 4 4 4 6 5 3 2 4 4 4 5 2 2 1 2 5 3 3 4 4 2 2 3 4 2 4 1 1 4 1 1 1 1 1 3 6 2 5 9 7 8 9 5 6 8 4 6 5 2 2 9 3 4 2 5 3 5 6 6
20 20 21 20 20 20 19 19 19 18 18 18 10 6 2 9 11 14 11 8 5 10 7 7 9 14 6 8 7 4 1 2 5 5 4 5 3 2 1 1 5 5 2 2 0 2 4 5 5 0 1 5 4 4 1 5 1 4 2 4 2 5 4 5 5 3 1 0 3 5 8 1 5 4 2 2 4 7 2 2 6 5 10 9 8 5 7
19 20 20 20 20 20 19 18 19 18 18 19 12 5 5 7 9 7 8 7 4 6 9 6 4 13 11 13 14 13 12 12 9 7 8 6 5 6 2 5 7 4 5 5 7 5 5 4 2 4 3 4 5 4 4 1 5 7 6 6 4 3 1 3 5 6 6 3 4 4 5 1 0 2 2 2 4 2 6 9 12 10 7 6 6 5 6
21 20 20 21 21 20 19 19 19 19 20 19 15 5 7 5 8 9 7 6 7 9 1 2 1 7 10 13 12 12 13 12 13 10 7 5 3 8 5 5 6 4 3 4 4 2 2 1 3 1 3 3 1 5 2 1 5 2 2 2 4 5 9 7 8 1 5 5 7 6 3 1 2 5 5 6 8 8 8 6 7 8 9 4 3 7 7
22 21 21 21 20 20 20 20 20 20 20 19 13 6 9 6 6 6 9 7 4 3 2 4 2 3 3 5 3 6 11 12 9 4 6 7 5 5 8 7 7 3 3 4 7 5 4 7 7 5 1 3 8 4 1 7 4 2 4 4 6 3 5 1 2 5 4 7 12 13 5 5 12 8 8 10 11 9 6 6 7 6 6 4 5 4 4
22 22 22 22 22 22 22 21 20 19 19 19 12 5 6 6 7 7 3 3 5 6 5 7 4 7 11 13 11 8 8 6 7 11 10 10 8 6 2 4 2 1 2 6 6 5 4 3 4 4 6 5 6 4 6 6 8 3 1 6 3 7 3 2 5 7 6 8 8 9 12 11 9 10 11 8 5 7 7 6 4 3 3 4 5 3 3
23 23 23 23 22 21 21 20 20 20 19 19 15 8 4 3 5 9 7 5 4 6 8 3 12 17 13 9 8 8 11 10 9 11 9 10 12 12 11 7 9 11 11 8 3 4 2 4 2 2 9 5 8 7 4 5 6 8 8 8 0 7 4 5 10 11 9 15 15 10 7 8 8 8 8 11 12 9 3 3 3 3 3 3 3 1 2
23 24 23 23 21 21 21 21 21 21 21 20 15 7 7 7 8 8 5 4 2 2 6 8 7 1 1 6 9 10 8 12 11 11 12 13 13 13 11 2 1 1 2 4 5 7 5 3 5 5 6 5 8 6 8 9 6 3 9 12 9 4 4 4 4 7 12 11 12 15 11 9 13 13 11 5 2 3 3 4 4 4 5 4 2 3 2
24 23 23 23 23 22 21 20 20 19 20 20 9 6 7 5 10 12 9 6 2 5 6 8 2 1 0 7 2 2 4 10 11 12 12 12 12 11 11 9 5 2 5 3 3 5 1 4 4 9 8 6 4 4 3 3 7 6 8 10 4 3 11 9 2 8 11 11 14 6 4 9 7 4 1 3 2 2 2 2 4 5 5 5 7 5 2
24 25 23 23 24 23 21 23 21 21 21 19 10 7 7 8 9 10 9 8 10 8 1 1 1 3 1 2 4 4 6 9 12 12 12 13 12 10 8 9 9 6 5 6 4 4 5 7 10 4 2 0 2 8 6 3 0 2 9 12 7 10 13 6 8 9 12 13 11 5 6 7 9 1 5 3 3 2 3 3 2 2 2 4 5 9 9
24 24 23 24 24 23 22 23 23 22 22 15 4 6 1 5 5 10 10 9 7 6 5 6 1 2 5 4 1 5 4 8 10 11 12 11 12 12 12 13 12 11 9 7 6 7 7 10 5 4 5 4 3 4 3 7 8 10 15 15 13 12 10 12 14 14 14 15 15 9 7 12 3 6 4 4 3 3 2 0 1 2 3 3 3 4 7
23 24 23 25 26 24 23 23 23 22 17 4 5 2 3 4 8 9 10 9 8 3 4 4 5 4 2 1 2 4 5 7 8 11 12 11 11 12 12 12 13 12 10 7 7 7 9 6 6 6 5 7 5 2 5 5 8 13 15 13 10 10 12 13 12 11 15 14 2 1 0 1 2 5 7 5 3 2 2 0 1 3 3 4 4 5 4
23 24 25 25 26 25 25 24 23 21 15 6 5 4 5 8 6 11 16 11 10 6 2 3 6 1 3 2 3 8 9 8 10 11 14 13 12 13 12 9 8 6 7 7 7 10 5 6 5 7 7 11 8 4 7 7 10 9 14 7 9 12 12 13 11 7 8 7 2 0 1 1 4 5 4 4 3 3 2 1 3 3 4 5 6 5 6
23 23 23 25 24 25 24 24 24 22 9 10 12 7 4 4 5 12 19 13 10 6 4 3 3 2 3 1 1 1 7 10 7 3 2 4 6 7 7 9 8 9 10 9 8 4 7 8 7 8 7 12 11 2 4 8 9 16 12 8 9 9 9 9 5 2 4 3 3 4 3 1 2 2 2 5 3 3 2 3 3 5 5 5 5 5 6
24 23 24 23 22 24 23 23 26 19 8 9 5 5 0 1 8 13 13 10 6 3 2 3 4 1 2 4 1 2 2 2 1 4 3 5 5 4 4 4 4 3 8 7 5 4 2 6 8 10 9 6 4 4 4 11 16 15 12 12 11 6 3 4 5 4 4 4 3 6 8 2 2 2 2 2 3 3 4 4 5 5 6 5 5 4 3
22 22 22 20 21 23 23 22 23 23 11 8 5 8 6 12 14 19 12 8 3 2 3 3 2 4 4 1 1 3 5 6 4 7 4 2 2 4 3 5 7 4 7 9 5 3 2 2 8 7 2 7 6 2 8 12 12 13 13 12 1 4 5 5 2 3 2 3 3 2 1 1 1 1 1 2 3 3 3 4 6 8 5 5 5 5 7
21 22 22 21 22 23 23 20 9 7 8 6 5 2 10 20 19 23 17 8 5 3 4 3 2 3 2 0 4 4 2 4 3 7 8 2 2 6 3 3 4 6 4 5 3 7 7 7 3 3 9 3 5 8 9 11 12 14 12 6 4 5 5 1 5 3 1 1 1 0 1 2 2 1 0 2 2 2 4 3 4 7 9 7 5 6 6
22 21 21 20 21 15 8 8 6 6 6 7 6 11 25 21 22 14 12 3 3 4 4 3 5 7 6 7 5 1 3 1 0 2 1 2 2 0 1 4 6 7 2 5 6 7 8 5 5 8 6 7 11 9 11 11 13 14 11 7 5 6 4 3 5 3 1 1 1 1 3 3 2 1 1 2 2 2 3 6 5 5 6 8 9 8 7
23 22 19 17 8 3 7 6 4 8 7 5 7 18 23 12 5 5 3 2 2 1 3 3 3 5 7 5 1 2 4 3 2 2 0 2 5 0 3 2 7 1 2 4 6 8 8 7 6 8 9 11 13 7 5 4 6 9 4 5 5 4 5 4 4 3 1 2 3 3 1 1 1 0 1 2 2 2 4 5 5 6 9 10 9 9 8
17 16 7 3 3 6 4 5 4 6 19 23 20 9 2 4 4 4 3 3 2 5 3 3 8 2 2 4 2 2 4 3 3 5 2 2 2 2 2 3 4 5 7 5 7 4 2 2 5 9 12 9 1 3 4 3 3 4 5 6 5 4 4 4 3 4 1 1 4 3 3 2 2 1 2 4 3 5 5 4 4 4 5 7 8 9 10
13 5 4 4 4 5 5 3 8 22 15 5 4 3 2 1 3 3 4 2 2 4 3 6 6 6 6 4 2 2 5 6 3 1 4 3 4 4 3 4 4 3 4 2 5 9 4 4 5 6 10 4 2 5 5 5 5 5 5 5 5 4 4 4 3 3 2 1 1 1 1 2 5 7 4 7 6 4 5 5 5 4 5 7 8 8 8
4 6 5 3 7 3 2 10 25 15 5 5 1 3 3 2 5 3 2 3 2 1 3 5 4 6 9 11 8 8 3 5 7 7 6 3 1 4 1 1 2 3 5 7 4 4 5 4 2 1 8 3 8 2 6 7 7 5 5 5 4 4 4 4 3 1 2 1 1 1 1 1 2 3 5 6 7 9 6 4 5 5 6 7 8 8 9
3 2 2 5 3 3 4 6 3 3 3 3 2 0 2 2 2 1 3 4 3 3 1 3 3 4 6 8 7 10 2 3 1 3 3 5 1 5 1 2 0 2 2 2 1 3 2 1 0 5 7 6 4 4 5 6 6 5 4 4 4 3 5 1 3 1 2 0 1 2 2 2 3 5 5 6 7 7 8 7 7 6 7 8 9 9 8
5 5 3 5 4 5 6 2 1 2 0 1 3 4 3 1 2 1 1 6 6 2 2 3 4 7 7 11 8 5 2 1 3 1 2 4 3 4 2 1 1 3 3 2 3 2 2 2 2 4 8 5 2 3 6 6 4 4 4 3 4 2 3 2 2 0 1 1 1 2 3 3 5 6 6 6 6 7 8 8 9 8 8 8 7 8 8
15 12 5 4 2 1 2 4 3 2 4 3 2 2 2 4 3 5 3 1 2 2 3 2 1 2 1 3 2 0 3 3 2 1 2 3 1 2 2 1 2 1 3 1 2 2 1 3 4 8 6 4 5 6 5 5 5 5 4 4 3 3 2 1 1 1 1 1 4 4 5 5 7 7 6 5 7 9 8 8 8 9 8 8 8 8 9
4 2 3 0 3 3 3 5 2 3 2 2 6 8 4 4 3 2 3 5 3 2 6 9 7 9 5 1 5 2 1 0 4 1 1 1 2 2 2 3 3 2 3 0 2 2 4 4 8 8 2 3 5 5 6 6 5 4 3 3 2 0 1 0 0 1 2 2 2 4 4 5 7 6 5 5 5 9 8 8 9 8 8 7 8 9 9
4 1 2 1 2 2 3 4 2 3 7 6 5 4 6 11 9 9 11 4 6 8 6 5 8 6 5 2 3 1 2 3 1 4 3 3 1 1 3 4 1 1 2 2 0 2 2 5 8 2 4 7 8 7 5 5 5 5 4 2 1 1 2 1 1 1 2 3 4 4 4 5 5 5 5 6 6 5 6 9 9 7 8 7 8 9 8
5 6 4 3 3 2 3 1 2 4 2 3 5 6 8 8 9 9 3 3 6 4 10 10 8 6 4 1 5 4 2 3 2 3 2 1 3 4 2 1 2 2 1 1 1 5 10 12 11 10 8 9 9 7 5 4 3 3 4 3 3 3 2 1 2 3 4 4 4 3 5 4 4 5 6 7 6 7 7 7 7 7 7 7 9 8 6
2 1 1 1 2 2 2 4 5 4 2 5 7 10 11 10 6 5 3 2 7 6 6 3 5 4 8 3 2 1 1 0 3 2 4 1 3 1 1 3 2 2 3 3 5 6 8 11 3 2 7 8 8 6 6 5 4 4 3 2 1 1 2 1 3 4 5 3 4 4 4 5 5 6 5 6 7 6 7 8 7 7 7 8 7 6 6
4 1 2 3 4 3 7 5 2 4 4 0 1 2 1 3 8 3 2 1 4 7 9 8 5 2 3 1 3 4 3 2 2 3 3 1 2 2 1 1 2 1 3 4 10 11 6 1 2 6 5 6 8 8 5 4 2 3 2 2 2 2 3 4 4 4 4 4 4 5 5 6 5 5 5 7 8 8 7 7 7 6 6 6 6 5 6
3 3 4 3 1 1 1 3 8 6 1 3 1 3 6 8 6 4 4 1 5 7 4 6 4 6 2 2 3 3 2 2 3 3 2 0 2 3 3 2 2 2 6 9 6 1 2 2 3 6 6 7 5 6 5 5 5 4 4 3 3 4 3 3 3 5 4 4 4 5 6 5 5 5 5 5 5 8 6 5 6 5 5 5 6 6 6
4 2 3 3 1 2 1 1 2 2 1 2 1 3 1 2 5 1 2 3 1 6 2 5 2 3 2 3 0 1 2 1 3 1 3 3 3 1 2 2 4 7 4 2 4 4 2 5 6 8 6 7 5 6 6 4 3 3 3 4 4 2 2 2 5 5 5 5 5 6 7 4 5 5 5 6 6 5 5 5 4 5 5 5 5 5 6
2 3 2 0 2 3 6 6 10 8 7 8 8 7 7 8 6 7 3 5 7 5 4 3 3 3 2 1 2 1 3 2 2 4 5 4 2 3 4 8 9 7 5 2 1 1 5 5 6 7 6 5 4 4 4 4 4 4 3 1 2 2 5 5 5 5 5 5 5 6 5 5 6 5 6 5 4 4 5 5 5 4 5 4 4 5 6
1 3 2 1 0 3 2 0 4 3 2 0 3 1 3 4 3 4 1 4 7 9 7 2 4 3 2 5 4 1 1 2 1 2 0 4 3 5 7 8 5 5 6 6 5 3 4 3 4 7 6 7 6 5 4 3 1 1 2 3 4 4 5 4 4 4 5 5 5 7 6 7 8 5 4 3 3 4 4 4 4 4 4 4 4 6 6
Wind_Direction
88 211 12 348 333 346 23 20 18 21 15 53 309 48 87 172 212 283 291 294 174 169 216 193 209 227 255 36 277 256 295 219 238 45 186 239 220 282 231 220 245 243 242 238 256 217 259 198 241 236 268 267 334 325 341 336 35 65 319 345 268 109 168 234 256 250 287 281 275 47 52 127 322 260 226 169 217 211 226 243 274 264 219 214 233 234 36
305 317 312 15 1 11 19 23 17 12 32 79 30 64 115 25 320 317 303 26 352 190 200 209 206 227 263 260 263 267 224 273 282 226 220 172 246 209 234 344 218 264 307 359 260 188 280 210 242 255 257 263 97 15 26 351 32 8 293 312 322 20 273 150 280 273 304 288 333 35 358 48 219 228 247 221 305 337 280 30 101 266 214 251 251 256 182
243 277 348 315 353 40 28 26 17 18 15 56 110 126 169 102 302 257 303 346 24 216 287 224 201 217 231 231 252 251 257 226 236 239 243 200 205 276 254 221 155 197 198 225 178 232 216 290 329 212 227 231 19 21 44 40 88 57 337 60 280 162 262 122 262 279 277 279 267 276 8 289 267 299 333 323 285 274 293 273 230 252 173 210 238 265 237
243 229 214 242 272 0 333 4 50 34 19 50 69 220 61 205 93 283 353 345 25 287 145 73 270 208 218 225 235 241 244 269 261 188 255 222 214 219 252 7 87 186 291 249 251 263 179 194 268 8 272 276 353 203 33 43 83 263 71 10 66 258 297 274 245 247 253 265 305 88 128 224 236 303 328 305 325 306 271 282 260 249 271 260 257 267 279
243 240 244 264 271 251 319 330 22 88 51 105 114 19 127 268 109 170 282 352 340 246 25 19 305 211 346 232 71 228 221 241 313 197 217 356 139 275 215 218 227 255 204 218 260 234 250 222 224 238 244 281 245 320 133 78 20 325 318 344 87 343 261 230 248 253 267 311 288 316 27 304 288 298 296 320 300 288 282 260 271 339 320 274 235 280 306
246 248 261 251 242 223 222 315 101 150 183 99 72 63 330 76 260 90 244 147 238 181 255 358 280 287 358 239 298 269 311 97 226 344 116 283 338 116 323 124 242 264 265 349 283 333 308 355 254 45 347 10 317 36 13 73 358 49 359 334 104 172 251 240 272 286 358 322 306 308 306 280 269 272 276 280 283 279 271 269 278 292 271 282 305 298 290
241 237 232 230 249 251 249 192 161 140 96 89 99 88 286 118 322 201 330 128 299 43 20 20 344 275 250 266 270 263 255 263 233 124 320 350 319 266 273 231 41 4 10 232 279 318 316 297 34 132 313 220 334 308 339 185 57 51 38 349 206 29 253 258 47 309 306 292 291 298 298 302 293 282 272 269 269 265 264 270 267 262 262 265 269 269 270
244 241 233 233 230 239 233 222 126 124 106 82 64 126 121 315 93 299 30 97 349 278 3 84 6 270 245 234 229 253 253 264 282 299 256 266 270 169 257 344 31 359 48 243 245 278 272 262 267 303 112 316 100 242 226 285 343 47 359 328 302 177 286 5 315 321 293 291 289 287 284 291 284 283 275 264 261 262 261 265 261 261 262 267 263 263 268
231 238 237 230 226 220 224 214 206 165 116 39 110 283 118 224 77 129 107 23 222 84 335 188 226 278 222 221 286 256 252 263 81 254 333 220 247 69 120 35 355 325 91 2 102 279 156 47 63 337 341 206 22 69 298 79 331 335 5 23 313 347 262 333 324 299 289 288 286 293 308 305 280 281 277 267 260 262 254 251 256 256 265 264 274 270 253
238 241 239 232 231 230 215 221 196 162 135 100 118 97 240 63 298 91 105 100 263 131 130 30 86 237 245 187 253 156 72 92 337 335 89 44 84 94 108 347 48 295 303 282 181 150 169 208 216 210 222 226 252 213 237 276 261 299 190 255 289 221 267 307 298 286 272 279 292 343 343 311 285 258 250 258 263 253 260 264 266 259 258 254 251 264 73
228 214 227 254 237 227 229 223 205 177 132 138 115 208 138 153 136 60 69 105 300 156 143 253 157 232 103 357 124 8 50 26 4 181 215 108 207 96 64 49 350 232 254 241 135 198 219 224 236 226 230 232 241 243 241 245 228 218 232 257 215 224 238 258 223 259 274 285 343 349 340 272 259 284 102 204 255 289 281 274 224 229 194 215 37 139 170
231 226 220 223 237 254 229 216 218 174 155 177 129 167 200 124 82 80 116 159 255 135 180 215 178 270 89 238 103 202 176 271 253 3 257 300 247 14 133 205 201 269 111 66 254 228 241 260 261 288 253 254 250 252 249 245 245 226 218 221 224 234 244 245 163 241 255 235 31 314 258 259 283 357 241 14 234 222 234 251 231 212 87 111 106 162 178
253 249 244 242 238 230 236 245 230 206 170 154 145 189 219 160 120 139 139 135 234 181 177 240 181 184 154 45 290 209 227 239 124 282 253 253 285 284 237 195 218 224 71 337 41 5 329 278 282 252 258 311 288 266 255 246 247 239 222 219 215 227 224 167 276 168 8 58 211 243 240 114 275 260 119 18 79 99 63 326 244 222 178 141 155 225 207
244 243 240 236 235 232 229 228 234 248 183 160 165 183 151 144 141 132 147 150 244 192 214 261 238 240 215 230 232 265 328 293 262 202 244 242 204 233 278 207 212 96 91 79 43 93 346 24 342 2 287 12 350 322 256 255 245 243 233 216 213 215 145 161 252 221 215 222 201 239 322 317 302 298 195 146 178 177 167 221 285 184 213 164 188 233 219
240 242 242 240 235 235 233 231 230 229 204 171 161 128 163 173 147 143 178 114 228 231 172 204 211 209 216 233 206 227 232 258 14 276 229 332 124 222 203 232 72 48 126 92 358 42 171 98 8 266 328 348 266 252 329 311 322 61 308 230 204 200 198 218 196 274 192 173 269 280 259 254 289 218 264 307 239 135 217 98 289 197 210 180 180 222 234
248 246 243 240 236 232 230 233 232 227 224 190 166 181 186 182 155 128 152 151 175 261 233 204 184 131 172 211 188 178 207 186 204 136 329 271 242 309 284 320 310 105 71 72 60 85 16 135 233 116 229 209 238 69 296 12 331 303 18 13 179 217 216 214 223 259 246 218 225 242 250 249 130 223 204 246 198 165 119 71 286 207 181 221 178 232 243
248 246 244 242 238 235 232 230 227 226 228 208 178 184 202 174 166 166 161 179 184 222 57 148 164 148 104 225 103 203 199 184 164 115 282 278 246 288 302 326 315 144 167 76 199 98 50 55 37 188 298 168 68 226 301 21 263 324 336 35 48 157 207 195 225 227 235 259 261 253 241 220 281 202 247 218 153 134 47 327 292 131 230 218 200 222 244
244 242 239 239 237 236 234 233 229 227 227 220 186 186 190 183 178 142 179 178 212 244 201 154 130 167 192 184 184 199 86 57 49 116 125 234 21 269 261 11 263 289 137 93 192 86 188 145 185 220 227 252 169 52 255 160 162 227 267 36 326 45 339 221 214 234 234 238 252 255 277 269 246 216 222 214 183 8 305 253 247 198 216 245 197 221 240
243 244 242 238 239 238 237 235 235 233 230 227 192 167 209 180 183 173 174 189 208 241 181 181 185 190 195 119 179 161 184 167 161 127 275 10 254 208 159 238 128 248 4 154 55 168 179 226 114 137 158 278 87 206 217 61 237 30 133 23 319 317 132 304 23 242 236 241 253 260 279 233 219 258 171 174 86 273 238 240 147 197 255 235 202 243 254
244 240 240 239 237 235 234 236 233 233 231 229 196 199 166 174 184 182 185 209 213 237 224 182 187 204 186 185 187 154 178 97 186 152 164 195 258 87 34 267 320 89 342 85 124 223 118 213 191 133 217 227 248 170 31 232 122 167 203 200 167 213 119 234 204 226 30 297 239 272 260 333 108 184 64 257 138 233 194 279 290 294 308 316 311 279 271
251 250 245 242 241 239 238 238 238 236 235 231 215 177 221 183 183 197 210 205 216 250 253 192 178 207 197 209 203 193 182 197 186 190 210 191 190 105 162 203 211 130 205 160 177 216 162 220 222 189 232 160 248 65 201 123 321 267 193 234 234 220 72 257 258 183 241 203 214 207 225 203 305 95 206 246 201 215 309 315 301 301 296 299 290 278 267
244 245 246 245 243 240 238 237 236 235 231 232 220 174 226 183 170 191 197 192 211 228 247 304 248 223 217 216 210 198 201 210 204 186 177 196 221 192 195 147 188 150 203 121 62 4 336 183 45 72 242 251 17 207 163 60 249 259 16 81 329 210 192 202 228 255 138 208 232 240 213 205 229 186 234 245 274 283 279 271 267 283 289 278 284 283 291
241 241 241 242 241 241 241 239 238 236 235 231 221 181 215 146 174 164 131 195 245 288 282 234 224 263 285 261 233 204 214 215 205 183 173 187 216 223 202 197 230 193 153 173 183 173 174 138 215 158 20 197 192 236 271 189 246 229 224 238 215 263 191 262 37 250 247 246 250 270 278 254 271 258 252 269 279 283 282 263 276 259 264 284 288 330 338
240 240 239 239 239 238 237 237 236 236 234 231 218 129 217 181 156 127 142 194 191 242 255 225 228 239 220 228 218 213 223 218 200 206 204 200 214 235 261 230 139 139 210 211 182 179 192 153 213 134 225 219 102 195 224 249 222 208 212 277 233 245 225 142 215 267 278 266 252 243 253 265 264 265 273 272 256 255 266 279 269 302 0 34 45 31 14
248 242 240 239 238 237 236 233 234 236 234 233 227 182 152 99 160 161 152 185 204 187 235 205 217 231 232 218 219 214 214 206 207 210 198 201 210 216 221 202 182 196 218 197 116 83 83 180 239 171 230 227 131 239 182 200 268 159 229 235 299 295 169 194 236 249 227 253 258 262 246 233 252 258 272 275 277 283 14 59 61 77 72 67 17 16 64
238 241 240 239 238 239 240 240 236 233 233 231 223 173 185 182 167 169 176 210 194 169 228 238 260 16 158 167 207 213 186 193 204 208 206 209 208 210 225 87 291 225 143 133 161 196 185 195 212 213 219 257 149 215 226 197 227 209 201 235 200 201 82 222 191 217 249 266 275 268 280 278 265 262 256 283 354 12 53 31 42 29 27 17 40 50 6
242 241 241 241 239 237 238 239 239 237 237 235 221 147 182 170 168 173 179 170 160 284 214 239 233 309 250 208 231 96 149 187 201 206 216 216 215 214 220 223 203 145 181 197 196 195 171 212 186 228 207 236 192 219 203 258 199 221 236 243 119 139 245 238 127 257 260 254 259 262 294 281 268 240 245 85 11 70 76 50 29 24 19 0 345 336 358
241 240 239 239 240 238 237 236 232 233 236 235 223 168 176 176 187 188 188 172 189 233 331 3 276 260 56 279 251 209 191 186 192 203 212 219 217 219 219 222 222 216 207 187 210 182 193 193 227 216 208 279 192 248 220 249 100 254 240 242 187 206 237 234 230 236 253 254 255 227 220 255 273 237 143 71 34 34 51 46 3 3 24 9 349 329 326
246 245 241 239 238 235 232 235 235 233 231 229 104 98 43 240 202 192 193 193 198 227 247 263 315 95 252 250 121 188 218 181 195 200 208 215 210 212 212 213 214 219 216 211 218 214 211 225 204 191 201 192 146 237 169 219 219 230 235 234 226 228 235 237 246 254 266 269 270 273 255 262 280 135 143 101 52 92 80 45 40 0 7 1 352 326 312
238 240 240 240 240 236 233 232 232 233 229 154 103 122 203 226 199 198 190 181 185 180 213 194 223 257 8 67 242 201 185 195 201 201 206 208 210 211 213 211 219 213 211 205 202 224 215 227 221 216 207 148 179 212 186 213 229 239 243 240 235 239 233 238 241 239 252 265 303 82 153 316 82 121 113 111 85 69 140 8 27 347 343 355 336 312 314
237 235 235 235 236 234 233 231 229 225 214 136 149 136 191 236 201 180 188 187 177 171 204 200 241 35 311 236 153 190 190 191 197 206 209 208 209 208 217 213 231 204 216 211 218 227 204 219 199 216 191 190 198 194 223 224 245 249 243 216 225 232 236 240 237 247 267 290 11 102 100 86 95 85 123 93 45 56 31 52 350 15 345 347 318 314 304
243 240 241 241 240 237 232 230 228 225 192 158 193 193 180 209 189 173 184 177 150 161 173 226 252 207 240 244 225 248 189 196 195 172 191 164 221 207 227 193 208 195 211 221 220 238 221 232 231 230 212 203 202 216 203 230 238 247 251 235 232 238 239 241 209 85 59 25 10 323 236 108 7 165 222 29 4 11 23 342 15 2 346 311 309 294 286
243 238 239 240 239 241 241 238 232 219 190 200 221 15 209 172 142 154 164 132 139 186 171 192 206 206 218 238 344 293 156 70 53 132 239 159 210 159 233 184 222 234 219 233 194 235 177 210 218 234 227 129 203 212 213 224 237 247 254 255 254 243 175 63 76 73 65 11 35 212 262 142 177 67 349 322 2 360 360 5 2 340 334 331 325 325 320
239 241 237 235 240 239 238 234 236 234 205 122 205 203 190 147 149 146 139 139 142 158 134 174 195 204 234 357 51 270 149 165 198 169 243 181 168 154 203 156 189 209 190 203 203 215 230 169 217 232 168 216 201 200 236 238 239 251 253 252 163 105 108 102 82 90 64 74 59 41 89 183 84 295 320 353 350 353 28 17 350 336 326 323 320 324 317
233 240 242 238 236 239 237 235 232 211 203 196 221 181 160 154 154 156 152 157 128 197 175 232 152 185 236 32 200 263 153 92 171 188 194 231 143 180 151 149 171 199 220 147 237 215 223 211 142 151 221 180 195 230 233 247 244 243 246 230 149 118 86 218 236 153 141 113 89 153 150 107 87 332 1 335 319 349 10 344 333 332 326 328 320 314 327
240 232 236 238 242 242 244 229 202 180 189 200 210 170 175 160 154 167 176 177 131 161 175 212 168 211 185 229 230 246 107 222 159 76 155 136 4 330 148 185 230 213 110 168 227 197 220 147 114 228 187 199 222 217 231 231 244 251 253 232 162 171 181 190 131 132 239 305 266 210 131 76 92 273 286 286 322 0 350 323 323 333 306 303 316 321 318
243 240 233 237 230 196 220 214 164 201 215 161 154 162 164 134 36 96 142 185 291 71 172 146 172 207 170 208 48 255 113 224 148 87 55 139 193 220 157 184 216 153 144 231 211 218 224 145 205 231 220 230 238 230 243 232 226 246 223 129 124 112 113 94 98 100 27 39 102 157 109 20 353 253 230 292 290 321 331 325 330 328 317 309 311 314 315
247 252 239 152 124 211 224 203 185 157 116 123 121 101 125 151 164 151 152 177 193 135 234 144 224 163 46 118 233 191 126 231 106 179 245 226 134 268 206 203 219 193 226 212 232 149 69 170 209 217 242 233 328 195 206 127 92 79 97 112 118 121 111 117 138 122 106 205 227 215 284 307 246 201 322 303 320 317 307 293 297 288 289 296 300 305 309
228 216 204 192 163 208 202 210 172 142 121 122 65 112 161 178 133 184 194 148 163 188 168 184 208 138 152 178 215 151 170 169 165 164 185 201 146 265 140 204 207 183 250 159 248 125 215 204 209 211 245 204 223 231 135 119 98 87 95 98 108 105 114 116 130 162 167 177 119 132 155 248 293 294 326 313 305 284 284 292 291 290 290 290 292 292 290
142 191 179 134 208 202 49 160 148 130 128 142 221 132 176 179 165 198 123 134 159 225 144 225 179 187 190 206 197 221 144 143 184 210 190 285 177 179 230 129 240 133 222 199 228 92 165 217 261 144 242 177 225 97 125 128 118 99 93 94 95 97 113 129 97 92 111 335 37 324 330 298 270 278 284 277 285 292 289 278 276 282 286 282 284 290 288
188 86 160 195 146 123 137 117 11 35 96 109 100 281 132 179 199 163 132 188 156 230 165 175 117 183 201 204 203 221 166 93 21 97 127 195 198 87 116 196 92 112 250 221 258 84 71 73 308 202 236 220 199 147 132 110 117 114 110 113 104 119 107 119 109 115 79 314 315 286 284 279 266 262 260 264 269 273 283 289 292 287 286 289 289 284 284
191 170 172 118 119 114 106 86 103 108 58 179 134 184 170 172 78 46 187 157 193 163 265 158 200 187 210 187 201 176 238 129 139 139 145 230 203 157 217 291 334 169 227 208 107 64 101 215 226 255 246 222 140 152 138 135 128 141 132 120 123 120 121 133 125 290 127 219 243 267 264 257 258 259 256 262 265 275 284 289 289 287 282 279 281 284 287
115 111 101 96 91 162 137 155 192 144 166 169 123 186 164 134 193 151 207 254 313 108 242 43 230 86 339 62 27 110 168 147 135 175 111 207 124 86 147 186 126 240 211 34 70 68 133 219 227 243 228 192 176 162 162 145 136 135 139 135 146 127 134 148 198 233 252 220 244 250 254 254 253 254 259 258 270 277 274 270 271 276 279 282 281 283 281
116 89 93 153 134 221 142 202 153 82 207 183 169 182 143 151 213 99 131 204 177 214 199 156 192 147 195 186 145 139 41 183 147 91 257 243 103 194 166 208 202 241 62 59 106 151 219 232 217 237 219 149 175 173 162 158 155 139 135 159 123 97 167 183 130 246 274 272 253 250 256 254 261 268 265 256 247 256 269 275 274 275 276 281 280 277 278
119 59 94 74 200 190 125 224 99 160 193 192 178 181 166 182 181 181 189 197 142 194 166 133 133 167 165 213 37 290 148 202 4 120 217 135 221 200 144 229 177 69 156 201 229 308 0 268 247 219 191 191 189 183 170 162 163 165 164 143 194 176 167 194 226 242 270 262 260 260 264 262 267 269 272 274 270 259 260 272 277 283 281 280 280 281 277
164 171 150 158 208 206 169 217 138 192 243 158 195 182 173 191 160 194 217 109 138 143 151 174 162 136 127 232 143 192 118 124 118 206 150 103 143 223 206 57 94 100 49 82 154 214 226 242 243 226 188 177 169 164 156 148 133 122 126 176 203 194 216 191 237 240 249 253 263 253 266 276 279 287 282 274 274 277 272 268 270 268 272 277 277 278 292
127 62 115 145 166 227 99 185 215 207 186 185 179 177 181 172 173 142 144 145 148 164 102 82 119 161 148 190 90 348 76 62 147 221 99 174 192 218 87 125 198 178 167 215 218 239 248 245 263 85 147 147 137 141 144 145 146 161 196 196 189 239 258 237 255 250 259 257 268 282 287 280 277 274 277 287 284 277 273 273 272 269 265 266 278 290 295
167 153 112 158 204 156 187 220 127 88 5 56 294 13 343 123 119 185 239 152 137 131 130 126 110 72 46 305 75 172 165 190 91 272 153 201 50 50 129 72 226 234 189 182 227 228 243 332 194 162 136 134 139 140 145 144 158 190 203 211 232 252 259 249 258 266 273 277 279 278 274 278 276 278 279 276 281 285 280 275 271 266 267 278 286 290 294
89 119 170 192 238 179 246 95 141 147 267 307 284 104 127 139 174 124 133 127 128 139 150 119 161 104 167 142 144 169 232 195 158 212 81 100 149 203 159 215 180 267 248 201 236 265 231 189 117 114 124 119 132 138 154 165 167 183 194 206 229 230 241 256 269 276 274 268 262 263 269 272 274 278 279 285 286 282 275 266 270 281 279 276 288 292 297
107 69 42 83 43 340 248 305 59 143 284 335 111 157 277 116 105 91 219 84 118 116 142 88 92 90 164 115 189 173 216 199 175 120 110 206 192 191 85 220 221 201 243 236 221 229 154 129 133 128 142 144 146 153 153 178 183 194 214 213 226 235 260 259 271 269 268 268 269 266 267 277 280 273 265 266 265 267 281 290 290 280 281 281 284 285 289
355 90 144 109 146 198 140 166 182 187 194 203 196 192 173 167 148 163 201 135 141 96 74 141 165 119 120 75 123 147 230 133 107 188 166 193 153 142 187 216 225 201 225 225 201 200 155 167 144 146 145 157 160 161 164 160 175 206 219 252 284 271 264 262 257 272 280 277 270 278 280 270 256 250 259 260 272 288 295 298 289 277 284 290 291 286 287
64 101 179 210 314 344 332 14 62 92 171 301 123 219 140 134 156 158 182 133 143 148 186 172 103 117 117 191 205 180 33 44 201 65 45 261 154 161 215 202 220 219 185 168 191 189 149 183 169 156 162 162 175 186 182 181 195 282 280 261 243 242 259 266 270 266 270 286 283 264 268 267 270 269 267 277 289 295 295 298 306 303 308 306 291 286 281